Regional Weather Roundup
Issued by NWS Goodland, KS

Home | Current Version | Previous Version | Text Only | Print | Product List | Glossary On
Versions: 1 2 3 4 5 6 7 8 9 10 11 12 13 14 15 16 17 18 19 20 21 22 23 24 25 26 27 28 29 30 31 32 33 34 35 36 37 38 39 40 41 42 43 44 45 46 47 48 49 50
000
ASUS43 KGLD 271808
RWRGLD

GOODLAND FORECAST AREA HOURLY WEATHER ROUNDUP
NATIONAL WEATHER SERVICE GOODLAND KS
1200 PM MDT TUE JUN 27 2017

...OFFICIAL OBSERVATIONS...

CITY           SKY/WX    TMP DP  RH WIND       PRES   REMARKS
GOODLAND KS    SUNNY     80  64  58 S18       29.89F
HILL CITY KS   SUNNY     84  68  58 SE13G23   29.89F
IMPERIAL NEB   SUNNY     80  58  46 SE17      29.85F
MCCOOK NEB     CLOUDY    72  64  76 SE15      29.89F
AKRON CO       SUNNY     91  42  18 SW10      29.87F
BURLINGTON CO  SUNNY     91  49  23 S22G30    29.90F
LIMON CO       SUNNY     88  49  25 S15G22    29.93F
$$

...UNOFFICIAL OBSERVATIONS...

CITY           SKY/WX    TMP DP  RH WIND       PRES   REMARKS
LENORA KS        N/A     79  32  18 MISG        N/A
NORTON KS      CLOUDY    73  61  64 SE13G22   29.89F
SHARON SPRINGS   N/A     93  56  28 S23G31      N/A
TRENTON NEB      N/A     76  32  20 SE12        N/A
KIT CARSON CO    N/A     89  52  27 MISG        N/A
YUMA CO        FAIR      84  55  37 S18       29.85F
$$




USA.gov is the U.S. government's official web portal to all federal, state and local government web resources and services.